Weather in Navoi

Uzbekistan     40°06′11″N   65°22′26″E
temp.,
°C
wind,
m/s
gust,
m/s
humid.,
%
clouds,
%
prec.,
mm/h
press.,
hPa
HPBL,
m
26 february, fri
fri2623:00−7n352266 0.0 1038181
02:00−8n462533 0.0 1037176
05:00−9nnw222617 0.0 103546
08:00−8n11250 0.0 103546
11:00−3ene22260 0.0 1033715
14:000nnw21170 0.0 10311002
17:000nnw321525 0.0 1030882
20:00−1nnw3416100 0.0 1030384
27 february, sat
sat2723:00−2wnw1120100 0.0 1029167
02:00−2wnw1224100 0.0 1028131
05:00−2nnw1126100 0.0 1028114
08:00−2ese112499 0.0 103091
11:00+1s341660 0.0 1030638
14:00+4ssw44130 0.0 1028908
17:00+5sw33140 0.0 1027932
20:00+2ssw11190 0.0 102922
28 february, sun
sun2823:00+1ese22180 0.0 102822
02:00+1ese23270 0.0 102722
05:000e44410 0.0 102539
08:00+2e34414 0.0 102544
11:00+8e332427 0.0 1023463
14:00+11ne221842 0.0 1020857
17:00+12ne221641 0.0 1019784
20:00+8ene22240 0.0 101922
1 march, mon
mon123:00+8ese342833 0.0 102022
02:00+7e443899 0.0 101932
05:00+6ese343549 0.0 101924
08:00+6e45330 0.0 101941
11:00+15sse47180 0.0 1018754
14:00+17s710170 0.0 10171084
17:00+18ssw710160 0.0 10161756
20:00+12wsw34300 0.0 101826
2 march, tue
tue223:00+10sw223330 0.0 101922
02:00+8wsw1137100 0.0 101922
05:00+7n1141100 0.0 102022
08:00+8ne2238100 0.0 102122
11:00+14n232293 0.0 1021426
14:00+17nnw441814 0.0 10201064
17:00+16nnw661831 0.0 10191041
20:00+12n45264 0.0 102172